Temp
6 6 6 7 7 7 8 8 8 8 8 8 8 8 8 8 9 9 9 9 8 8 8 8 8 8 7 8 10 10 11 11 13 13 14 14 14 15 14 16 17 18 18 18 17 17 17 16 17 18 17 15 15 16
6 6 6 6 7 7 8 8 8 8 8 8 8 7 7 8 8 8 8 8 8 7 7 8 8 8 8 7 8 8 9 9 10 11 11 11 13 13 13 15 14 15 16 17 16 18 15 14 15 14 14 14 15 15
6 6 6 6 6 7 7 8 8 8 7 7 7 8 7 7 8 8 8 8 8 7 7 9 9 9 9 9 8 8 8 9 9 9 10 10 11 13 14 14 14 14 11 13 14 16 15 14 14 14 14 14 14 14
5 6 6 6 6 7 7 7 7 7 7 7 7 7 7 7 8 8 7 7 7 6 6 9 8 8 9 9 9 9 9 9 9 8 9 10 11 12 13 14 13 15 14 14 14 13 14 15 14 13 13 13 13 13
5 5 6 6 6 6 7 7 7 7 7 7 7 7 7 7 7 8 7 7 7 7 6 7 8 9 9 9 9 9 9 7 7 9 9 10 12 11 12 12 13 13 14 13 13 14 13 12 12 12 12 12 12 12
5 5 5 6 6 6 6 6 7 7 7 7 7 7 7 7 8 8 7 7 7 6 5 7 8 9 9 9 10 10 9 7 7 9 10 11 11 11 11 12 13 13 12 12 12 12 11 11 11 11 11 12 12 12
5 5 6 6 6 5 5 6 6 6 7 7 7 7 7 7 7 7 7 7 7 6 6 7 8 8 9 9 9 9 8 7 7 8 8 11 11 10 10 11 13 12 11 10 10 10 10 11 11 11 10 10 11 12
5 5 5 5 5 4 4 5 5 6 6 6 6 7 7 7 7 7 8 8 7 6 6 7 9 8 9 9 10 9 7 7 7 8 8 9 10 9 11 11 10 10 9 10 10 10 10 10 9 10 10 10 10 11
5 5 5 4 4 3 3 3 4 6 6 6 7 7 7 7 7 7 8 7 6 6 6 7 7 10 9 8 8 8 7 9 7 8 9 9 11 10 12 10 9 9 8 8 8 8 8 9 9 9 10 10 10 11
5 5 4 3 3 2 2 3 4 6 6 7 7 7 7 7 7 7 6 6 6 6 6 6 7 8 7 8 9 8 7 9 9 11 9 9 11 11 10 10 9 8 8 8 8 8 8 8 9 9 9 9 9 10
5 5 4 3 3 3 2 3 4 5 6 7 7 7 6 6 6 6 6 6 6 6 6 6 6 8 7 9 9 7 9 8 8 10 10 10 11 10 10 9 9 8 7 7 7 8 8 7 7 7 8 8 8 9
5 5 5 4 3 4 4 4 5 5 6 6 7 7 6 6 6 7 8 7 7 8 7 7 7 5 6 7 8 8 9 8 9 9 9 9 9 9 9 9 8 8 7 8 8 8 8 8 7 7 7 8 8 8
4 4 4 4 5 4 5 5 5 5 6 6 6 6 6 6 6 8 9 9 8 8 7 7 8 6 6 6 7 8 9 10 9 9 9 9 9 10 8 8 7 7 7 7 7 9 8 7 8 7 8 7 8 8
5 6 5 5 5 5 6 6 6 6 6 6 6 4 7 8 9 10 10 11 10 9 8 8 8 6 6 7 7 8 10 9 8 7 7 10 9 8 8 8 7 7 8 7 7 8 7 7 7 8 8 8 8 8
5 5 5 4 5 4 5 5 6 6 6 5 5 6 8 9 8 8 9 9 10 10 9 8 7 7 6 8 6 7 9 8 7 7 9 9 9 8 8 8 7 6 7 7 8 8 7 7 7 8 8 9 9 10
5 4 4 4 4 4 5 5 5 5 6 5 5 6 7 7 9 8 8 9 9 10 9 8 10 9 9 8 7 8 8 7 10 9 9 9 8 8 8 8 7 8 7 7 7 7 7 7 8 8 9 9 9 10
4 3 3 4 5 5 5 5 5 5 5 5 5 6 6 7 8 9 10 10 10 9 10 10 10 11 7 9 9 9 9 11 10 9 8 8 8 8 8 7 7 7 7 7 7 7 7 7 8 9 8 8 9 9
3 3 3 4 4 4 5 4 5 5 5 5 6 8 7 8 9 9 10 10 9 9 8 10 9 9 11 10 11 10 8 8 9 8 8 8 8 7 7 7 7 7 7 7 7 7 7 8 8 8 9 9 9 9
3 3 3 4 4 4 5 5 5 5 6 6 7 8 8 8 10 11 10 9 9 9 9 8 9 9 10 9 9 9 8 7 8 7 7 7 7 7 7 7 7 8 7 7 7 7 7 7 8 8 8 9 8 9
3 3 4 4 4 4 4 4 5 6 7 8 8 8 9 10 10 10 10 9 7 8 8 8 9 9 9 9 8 8 8 7 7 6 7 6 7 7 7 7 7 8 7 8 7 7 8 8 8 8 8 8 9 9
4 4 4 4 4 4 4 4 5 6 7 8 9 9 10 10 9 9 8 7 7 8 9 9 9 9 9 9 8 7 7 6 6 5 5 6 7 7 7 7 8 8 8 7 7 7 7 7 7 8 8 8 9 9
4 4 5 4 4 5 5 5 6 7 7 9 8 9 9 9 9 8 8 7 8 8 9 9 9 9 8 8 7 6 6 6 6 6 6 7 7 7 8 8 8 8 7 8 7 7 8 8 8 8 8 8 8 8
4 4 5 5 5 5 6 6 6 7 9 10 9 10 10 9 8 8 8 8 8 9 9 9 9 9 8 8 8 8 7 7 7 7 7 7 8 8 8 8 8 8 8 8 8 8 8 8 8 7 7 7 7 7
4 5 5 5 5 5 6 7 7 8 9 9 10 11 11 9 8 8 10 9 9 9 9 9 9 9 9 9 9 8 8 8 8 8 8 8 8 8 8 8 8 8 8 8 8 8 8 8 8 8 7 7 7 7
5 5 5 4 6 7 9 10 9 9 10 10 10 11 10 8 10 10 10 9 9 10 10 10 10 10 9 10 10 10 10 9 9 9 9 9 9 9 9 9 9 8 8 8 8 8 8 8 7 7 7 7 7 7
4 7 6 8 8 8 10 10 11 10 10 10 10 9 8 10 10 12 11 11 10 11 11 11 10 10 10 10 10 10 10 10 10 10 9 9 9 9 9 9 8 8 8 8 8 8 8 8 8 8 8 7 8 7
5 8 7 7 7 7 8 9 9 10 11 11 11 11 11 12 13 13 12 12 12 12 11 11 11 11 11 11 10 10 10 10 10 10 10 10 10 10 10 9 9 9 9 8 8 8 8 8 8 8 8 8 8 7
6 7 7 7 7 7 9 10 11 12 12 11 11 12 13 13 14 13 13 13 12 12 12 12 11 11 11 11 11 11 11 11 11 11 11 11 10 10 10 9 9 9 9 9 9 8 8 8 8 8 8 8 8 7
5 6 6 7 7 8 8 10 11 12 12 12 12 13 12 13 13 13 13 13 12 12 12 12 12 12 12 12 12 12 12 12 12 12 11 11 11 10 10 9 9 9 9 9 9 8 8 8 8 8 8 8 7 7
6 7 7 8 9 10 11 11 12 12 12 12 12 12 12 13 13 13 13 13 12 12 12 12 12 12 12 12 12 12 12 12 12 12 12 11 11 11 10 10 9 9 9 9 9 9 9 8 8 8 8 8 7 7
7 6 7 8 10 11 11 12 12 12 12 12 12 11 12 13 13 13 13 13 13 12 12 12 13 13 13 13 13 13 13 13 13 13 13 12 12 11 11 10 10 10 9 9 9 9 9 9 9 8 8 8 8 8
7 7 8 10 11 11 11 11 12 12 12 11 11 12 12 12 12 13 14 13 13 13 13 13 13 13 13 13 13 13 13 13 13 13 13 12 12 12 11 11 10 10 10 10 9 9 9 9 9 9 8 8 8 8
7 8 8 9 10 12 11 11 11 12 11 12 12 12 12 12 13 14 14 14 14 14 14 14 14 14 14 14 14 14 14 14 13 13 13 13 12 12 11 11 11 10 10 10 10 10 10 9 9 9 9 9 9 8
Height
1548 1545 1543 1541 1539 1536 1533 1531 1528 1526 1524 1522 1521 1520 1519 1518 1516 1516 1514 1511 1512 1511 1509 1510 1511 1512 1512 1515 1513 1514 1514 1513 1511 1509 1508 1506 1506 1502 1502 1497 1494 1492 1494 1495 1498 1499 1497 1486 1485 1487 1490 1489 1488 1486
1545 1543 1541 1539 1537 1534 1531 1529 1526 1524 1522 1521 1520 1519 1518 1518 1517 1515 1514 1512 1510 1510 1510 1509 1509 1509 1511 1513 1515 1514 1516 1515 1515 1513 1515 1512 1508 1506 1506 1498 1498 1499 1493 1493 1494 1485 1486 1488 1489 1489 1488 1487 1484 1483
1542 1540 1539 1537 1535 1532 1530 1527 1525 1523 1521 1519 1518 1518 1517 1517 1516 1515 1514 1512 1510 1509 1508 1507 1508 1509 1510 1511 1513 1515 1515 1515 1515 1515 1516 1515 1511 1507 1502 1497 1499 1496 1498 1497 1493 1486 1487 1487 1487 1486 1485 1484 1483 1480
1539 1537 1536 1535 1532 1530 1528 1525 1523 1521 1519 1517 1516 1516 1516 1516 1516 1514 1514 1512 1511 1510 1511 1509 1508 1508 1507 1508 1510 1512 1514 1514 1515 1515 1516 1513 1510 1506 1500 1499 1498 1496 1496 1493 1490 1490 1487 1483 1483 1483 1480 1478 1477 1476
1535 1534 1533 1531 1530 1527 1525 1523 1521 1519 1518 1516 1515 1515 1515 1515 1514 1513 1512 1512 1512 1515 1513 1508 1506 1506 1506 1507 1508 1509 1510 1512 1513 1514 1513 1510 1505 1505 1500 1498 1492 1493 1491 1490 1484 1487 1485 1483 1480 1478 1475 1473 1471 1470
1533 1531 1530 1528 1526 1524 1522 1520 1518 1517 1515 1514 1513 1514 1514 1514 1514 1514 1514 1515 1513 1512 1513 1510 1507 1505 1506 1506 1506 1506 1507 1508 1510 1509 1506 1501 1500 1501 1495 1488 1487 1488 1488 1487 1483 1483 1480 1477 1474 1470 1468 1467 1464 1462
1530 1528 1527 1525 1523 1521 1519 1517 1516 1514 1513 1513 1513 1513 1513 1514 1514 1515 1516 1515 1513 1513 1513 1511 1507 1506 1505 1505 1504 1505 1504 1505 1506 1505 1501 1498 1496 1497 1490 1485 1484 1483 1482 1481 1479 1477 1473 1470 1467 1464 1462 1459 1456 1453
1528 1526 1524 1522 1520 1518 1516 1514 1513 1512 1512 1512 1512 1512 1512 1512 1512 1513 1513 1513 1513 1513 1513 1512 1509 1507 1505 1505 1504 1503 1503 1502 1501 1499 1497 1494 1493 1491 1484 1480 1481 1480 1478 1475 1472 1470 1466 1462 1459 1455 1454 1452 1448 1445
1525 1523 1522 1520 1518 1516 1514 1512 1511 1511 1510 1510 1510 1511 1511 1512 1512 1513 1512 1512 1512 1516 1513 1513 1511 1504 1504 1503 1502 1502 1501 1500 1500 1497 1493 1493 1485 1483 1477 1479 1479 1476 1474 1469 1466 1463 1460 1457 1451 1447 1445 1443 1441 1437
1523 1521 1520 1518 1516 1513 1512 1511 1510 1510 1510 1509 1510 1511 1511 1512 1512 1513 1512 1512 1513 1513 1513 1512 1510 1506 1505 1502 1501 1502 1500 1498 1495 1491 1491 1487 1479 1476 1477 1476 1475 1472 1468 1464 1460 1455 1453 1448 1444 1440 1436 1434 1432 1429
1521 1520 1516 1515 1513 1511 1511 1510 1510 1510 1510 1510 1510 1511 1511 1512 1512 1512 1512 1512 1513 1512 1510 1507 1506 1504 1502 1502 1500 1501 1497 1498 1496 1489 1488 1480 1474 1476 1476 1474 1472 1467 1462 1457 1453 1446 1444 1441 1436 1431 1427 1423 1421 1419
1518 1516 1515 1514 1511 1509 1509 1509 1509 1510 1510 1510 1511 1511 1512 1511 1512 1512 1508 1511 1510 1506 1503 1502 1502 1501 1501 1501 1501 1500 1496 1497 1491 1490 1487 1483 1479 1476 1474 1471 1467 1462 1457 1451 1446 1441 1437 1432 1427 1421 1417 1413 1410 1409
1515 1514 1513 1511 1510 1508 1508 1508 1507 1508 1509 1510 1510 1510 1510 1510 1511 1506 1502 1503 1503 1499 1498 1498 1499 1499 1500 1501 1500 1499 1494 1489 1489 1486 1484 1478 1473 1471 1470 1467 1462 1457 1451 1446 1440 1435 1429 1422 1415 1409 1403 1401 1401 1401
1513 1512 1511 1510 1509 1507 1507 1507 1507 1508 1509 1509 1509 1510 1507 1503 1499 1494 1494 1493 1494 1494 1495 1495 1496 1498 1498 1499 1498 1496 1489 1489 1488 1489 1482 1472 1471 1469 1467 1464 1459 1453 1447 1440 1434 1428 1422 1414 1406 1397 1390 1388 1391 1394
1511 1510 1508 1508 1508 1508 1507 1507 1507 1507 1508 1507 1507 1504 1497 1494 1492 1492 1492 1492 1491 1491 1492 1493 1494 1495 1497 1495 1497 1495 1489 1489 1490 1482 1473 1470 1469 1466 1464 1460 1456 1450 1442 1436 1430 1425 1418 1410 1400 1393 1389 1387 1388 1391
1509 1508 1506 1506 1507 1507 1507 1507 1507 1507 1506 1504 1501 1497 1493 1493 1489 1488 1488 1488 1488 1488 1489 1490 1490 1491 1489 1491 1492 1486 1486 1486 1472 1471 1470 1468 1466 1464 1461 1458 1453 1448 1442 1435 1431 1424 1417 1409 1401 1395 1392 1390 1390 1389
1506 1506 1505 1505 1506 1506 1506 1506 1505 1505 1502 1498 1492 1489 1491 1489 1486 1485 1484 1484 1485 1486 1486 1487 1485 1481 1487 1484 1482 1480 1475 1468 1469 1468 1467 1465 1463 1461 1458 1455 1452 1447 1442 1435 1431 1424 1418 1409 1404 1399 1397 1396 1394 1392
1504 1503 1503 1503 1504 1505 1504 1504 1503 1501 1496 1491 1489 1485 1484 1483 1481 1480 1478 1479 1482 1482 1482 1481 1481 1479 1476 1474 1470 1469 1468 1467 1466 1465 1465 1463 1461 1458 1457 1454 1450 1447 1443 1438 1433 1426 1423 1416 1410 1407 1405 1403 1401 1397
1501 1500 1500 1501 1503 1504 1502 1502 1501 1496 1489 1486 1482 1480 1479 1477 1474 1474 1474 1474 1475 1477 1478 1477 1476 1472 1469 1467 1466 1466 1466 1465 1464 1463 1462 1460 1458 1456 1455 1453 1451 1448 1445 1440 1437 1431 1427 1423 1417 1413 1411 1408 1405 1402
1497 1496 1497 1500 1501 1502 1500 1498 1497 1493 1485 1481 1478 1476 1474 1472 1470 1469 1469 1470 1472 1474 1474 1472 1467 1465 1465 1465 1464 1463 1463 1462 1462 1461 1459 1458 1456 1455 1454 1453 1451 1448 1446 1443 1440 1436 1432 1427 1423 1419 1415 1412 1410 1407
1496 1496 1496 1498 1499 1500 1498 1494 1492 1487 1482 1479 1474 1472 1470 1467 1466 1466 1466 1467 1469 1467 1464 1462 1462 1464 1462 1462 1462 1462 1461 1460 1460 1459 1458 1456 1455 1454 1454 1453 1451 1449 1447 1444 1442 1439 1435 1432 1429 1425 1422 1419 1416 1414
1496 1496 1496 1497 1497 1497 1494 1490 1488 1485 1482 1474 1472 1469 1467 1465 1464 1464 1464 1465 1463 1460 1460 1460 1461 1462 1463 1462 1461 1461 1460 1459 1459 1458 1457 1456 1456 1455 1454 1453 1451 1450 1448 1446 1444 1442 1439 1437 1434 1431 1428 1426 1424 1421
1494 1495 1495 1494 1496 1494 1490 1487 1486 1481 1477 1471 1468 1466 1463 1463 1463 1463 1463 1461 1459 1458 1459 1460 1461 1462 1463 1462 1462 1461 1461 1460 1459 1459 1458 1457 1456 1456 1455 1454 1453 1451 1450 1448 1446 1444 1442 1440 1438 1437 1435 1433 1431 1429
1493 1493 1493 1493 1492 1488 1486 1483 1480 1477 1473 1470 1466 1462 1462 1462 1462 1462 1459 1458 1457 1458 1459 1460 1461 1462 1463 1463 1463 1463 1462 1462 1461 1460 1459 1458 1458 1457 1456 1455 1454 1453 1451 1450 1449 1447 1445 1444 1443 1441 1440 1438 1436 1434
1495 1492 1492 1488 1486 1485 1479 1476 1474 1473 1467 1466 1464 1460 1459 1461 1460 1459 1456 1455 1455 1457 1459 1460 1462 1462 1463 1463 1463 1463 1462 1462 1462 1461 1460 1459 1458 1457 1456 1455 1454 1453 1452 1451 1451 1449 1448 1447 1446 1445 1443 1442 1442 1440
1491 1486 1486 1482 1481 1480 1476 1472 1468 1467 1466 1464 1461 1460 1460 1459 1458 1454 1453 1451 1452 1455 1457 1459 1460 1462 1462 1462 1462 1463 1463 1462 1461 1461 1460 1458 1457 1456 1456 1455 1455 1454 1452 1452 1452 1451 1450 1449 1448 1448 1447 1446 1445 1445
1486 1482 1480 1479 1479 1478 1475 1470 1468 1467 1463 1460 1458 1458 1458 1455 1452 1451 1449 1450 1451 1454 1456 1458 1460 1461 1462 1462 1462 1462 1461 1461 1460 1460 1459 1458 1457 1456 1456 1456 1456 1456 1454 1454 1453 1452 1450 1449 1449 1449 1448 1448 1447 1446
1479 1477 1477 1476 1476 1475 1474 1469 1464 1459 1456 1456 1457 1455 1453 1451 1449 1449 1448 1449 1451 1454 1456 1457 1459 1460 1460 1461 1461 1460 1460 1460 1459 1458 1458 1458 1457 1457 1456 1456 1455 1455 1455 1455 1454 1453 1452 1451 1451 1451 1450 1449 1448 1447
1474 1473 1474 1472 1473 1471 1467 1464 1459 1455 1454 1454 1454 1452 1451 1449 1448 1448 1448 1449 1450 1452 1455 1456 1458 1458 1459 1460 1459 1459 1459 1459 1458 1458 1458 1458 1457 1457 1455 1456 1456 1455 1456 1456 1456 1455 1454 1454 1453 1452 1452 1451 1450 1448
1468 1468 1469 1467 1466 1461 1457 1455 1453 1453 1452 1452 1452 1451 1449 1447 1446 1446 1446 1447 1449 1451 1454 1455 1456 1457 1458 1458 1458 1458 1458 1458 1457 1457 1457 1457 1457 1456 1455 1455 1456 1456 1457 1457 1457 1456 1456 1455 1454 1453 1452 1452 1451 1449
1463 1464 1464 1462 1457 1453 1452 1452 1451 1450 1449 1448 1448 1448 1448 1446 1445 1445 1445 1446 1448 1450 1452 1453 1454 1455 1456 1456 1456 1456 1456 1456 1456 1456 1456 1456 1455 1455 1455 1455 1456 1456 1457 1457 1457 1456 1456 1455 1454 1453 1453 1452 1451 1450
1458 1458 1458 1456 1452 1450 1448 1447 1446 1446 1446 1445 1445 1444 1444 1444 1444 1443 1443 1444 1446 1448 1450 1451 1452 1453 1453 1453 1453 1451 1451 1452 1453 1453 1454 1454 1455 1455 1455 1455 1455 1456 1456 1456 1456 1455 1455 1454 1454 1454 1453 1453 1452 1451
1452 1453 1453 1454 1451 1448 1446 1446 1445 1444 1443 1443 1442 1442 1441 1442 1441 1440 1440 1441 1443 1444 1447 1449 1450 1451 1451 1451 1449 1449 1449 1450 1451 1452 1452 1452 1453 1453 1453 1454 1454 1455 1455 1455 1455 1455 1454 1453 1453 1453 1452 1452 1451 1450
Wind_Speed
17 17 16 17 17 17 17 17 15 13 12 10 8 7 8 11 12 12 12 14 12 4 4 5 3 3 2 1 1 3 2 2 1 1 2 1 3 1 3 2 3 10 7 7 4 7 12 7 4 4 10 13 13 13
17 17 16 16 17 17 17 16 15 13 11 10 9 6 6 8 11 10 11 13 14 4 3 7 8 7 10 7 2 1 1 1 1 1 1 1 2 2 1 4 2 5 5 4 6 3 3 5 5 16 13 14 14 13
17 17 15 15 17 16 16 16 15 14 11 9 8 6 5 6 10 10 11 12 12 6 5 1 4 4 2 5 4 1 1 1 1 3 1 1 4 2 4 4 4 2 3 3 4 2 6 15 19 23 10 15 16 15
16 15 14 15 16 16 16 15 14 13 12 8 7 6 4 5 9 9 10 9 8 4 2 1 2 12 8 7 9 12 10 3 2 3 2 2 3 4 5 6 8 9 4 7 12 13 25 27 17 20 28 27 25 20
15 14 14 15 16 16 15 14 13 13 12 9 6 4 3 4 8 9 7 4 7 6 3 8 4 6 1 1 2 6 11 13 6 4 4 4 5 3 8 6 10 16 15 12 14 21 21 22 27 27 28 25 24 26
14 13 15 16 16 16 15 14 13 11 10 7 4 2 2 4 6 5 1 3 5 7 2 3 6 1 1 3 6 7 10 11 7 5 5 5 8 5 4 5 4 8 11 17 22 20 24 30 29 28 28 29 26 25
13 14 15 16 15 14 14 13 12 10 7 4 1 1 3 5 3 1 1 2 3 4 3 4 5 2 4 4 4 4 5 5 6 4 6 10 15 8 4 13 23 22 19 19 19 19 19 22 16 22 24 25 26 26
13 13 13 15 14 13 14 11 11 7 3 1 2 3 4 4 2 5 5 0 3 3 2 2 3 5 2 2 2 2 2 3 5 4 3 4 3 5 4 3 4 10 14 18 17 17 20 26 29 29 25 22 22 24
13 12 13 14 15 13 13 10 9 3 3 4 3 1 1 3 2 1 3 4 3 1 2 1 2 1 3 2 3 1 1 2 2 3 4 3 3 5 5 1 10 17 14 20 21 21 22 23 27 28 26 24 23 23
13 13 12 14 16 13 9 9 4 2 2 3 3 2 2 2 2 1 2 2 2 1 2 3 3 3 2 2 1 2 1 1 2 2 2 3 5 9 5 6 18 18 19 18 21 21 21 23 26 27 28 27 25 26
12 11 12 15 16 12 8 7 2 1 2 2 1 1 4 3 2 1 1 1 2 3 5 6 8 4 3 2 2 1 2 1 2 1 2 3 2 3 8 13 20 21 21 19 25 26 24 23 27 28 31 29 26 25
9 13 16 16 13 8 7 5 3 4 2 1 1 2 3 2 1 2 2 3 4 3 4 4 4 6 3 4 3 2 2 1 4 3 3 3 4 22 17 20 24 22 22 25 24 25 23 28 31 30 31 31 29 26
9 11 12 11 7 7 4 6 2 2 2 2 2 2 3 3 1 4 5 3 3 5 6 5 3 2 2 2 3 2 3 4 3 2 3 4 9 11 14 20 23 25 23 27 32 25 28 34 33 33 34 32 27 23
10 13 15 9 4 4 4 3 2 3 2 1 2 2 4 4 4 5 4 2 3 4 4 4 3 3 3 3 1 3 2 2 2 2 4 3 8 13 16 20 20 25 25 35 26 24 31 30 35 22 19 17 17 16
12 13 9 5 3 3 4 1 2 3 2 3 3 4 6 8 6 6 8 8 9 9 7 2 2 5 3 2 3 2 3 3 4 4 2 6 11 15 16 21 23 26 36 26 20 24 27 28 27 16 9 1 5 8
15 12 2 7 5 1 4 5 4 4 3 4 6 4 7 4 8 7 10 13 8 5 2 3 3 2 4 2 4 6 3 6 3 3 6 10 14 13 17 20 21 22 30 24 20 22 24 29 28 13 8 7 3 4
12 4 6 9 8 6 6 7 3 5 5 4 6 11 12 10 11 11 13 11 4 4 3 3 4 5 4 3 3 4 4 3 3 5 8 10 12 14 15 17 20 19 23 28 21 18 22 27 27 22 23 19 18 19
10 9 10 8 9 7 8 4 4 4 6 9 6 6 10 13 12 13 17 12 6 6 4 3 2 4 3 3 3 4 7 8 9 8 7 11 12 11 11 14 15 14 17 23 28 18 17 20 27 26 22 21 22 21
13 9 9 10 5 3 3 3 5 4 9 8 12 16 15 15 20 19 21 16 11 10 3 3 4 3 4 5 4 7 6 5 6 7 10 10 10 8 8 10 13 14 15 15 17 20 20 18 19 17 16 17 19 19
9 5 7 10 7 3 3 4 5 6 5 4 8 10 11 10 13 12 9 8 9 5 5 4 4 1 1 4 6 5 7 8 7 7 7 6 6 7 6 8 12 12 12 13 13 16 21 24 22 20 15 13 15 20
0 0 4 10 9 7 5 4 6 6 7 6 10 11 7 9 7 4 4 8 7 5 5 7 5 2 9 7 6 7 6 4 4 5 6 5 6 5 4 7 10 10 10 10 11 13 17 21 21 21 20 19 17 19
7 5 4 8 6 4 6 7 6 8 6 7 7 7 5 3 2 2 3 4 4 4 4 2 1 3 1 3 4 2 3 4 5 4 4 4 6 5 5 8 9 9 9 11 11 11 14 14 17 18 19 21 20 18
8 7 3 5 3 4 5 6 5 4 4 3 3 3 3 2 2 1 3 4 4 4 3 4 7 7 7 7 8 8 7 7 6 6 5 5 5 4 6 8 9 10 8 9 11 13 13 12 13 13 15 15 15 19
5 2 4 4 8 5 3 4 5 4 4 3 2 3 0 0 1 2 2 3 4 4 7 8 8 6 5 5 5 5 5 6 7 8 7 6 4 4 4 5 6 7 8 9 10 12 12 13 13 12 12 14 16 17
2 4 4 6 5 4 4 3 4 3 3 2 2 3 1 1 1 2 2 3 6 9 10 10 8 6 4 4 3 2 4 5 5 6 7 6 6 5 6 8 9 6 5 6 8 10 9 10 12 14 13 13 14 17
4 6 8 4 3 4 3 3 3 2 2 2 4 2 1 1 2 3 2 3 8 14 14 12 10 6 3 1 1 1 3 4 6 7 9 10 9 4 5 7 8 9 8 6 9 9 10 9 8 9 11 12 12 11
3 5 6 7 4 4 5 8 7 5 4 3 2 2 2 2 2 2 3 5 9 12 9 8 7 5 3 1 2 3 5 7 8 9 10 8 7 4 4 5 5 7 9 9 10 11 10 7 5 7 8 10 10 10
7 4 5 3 5 6 4 4 3 3 3 3 2 3 2 2 1 1 2 9 14 13 13 10 6 4 3 4 5 6 7 8 9 8 8 5 2 1 1 2 4 3 4 7 11 10 9 11 9 10 10 10 10 11
5 5 5 7 6 6 7 6 5 4 2 4 2 2 2 2 3 2 3 12 14 15 14 10 8 6 4 2 3 4 5 6 8 8 7 7 7 6 3 1 4 3 2 3 6 11 7 7 6 6 8 8 9 9
6 11 5 4 5 6 7 10 6 6 8 6 5 5 8 8 6 5 4 9 15 15 11 7 8 8 5 4 4 5 6 7 7 7 7 6 5 6 6 4 3 3 3 3 5 6 7 7 8 7 8 8 7 9
4 7 6 7 5 9 17 20 21 20 17 10 9 8 7 4 4 6 5 9 13 15 12 9 8 7 7 7 8 9 9 8 6 4 5 6 6 3 3 2 2 2 1 2 3 4 6 8 8 7 5 7 6 7
8 11 6 4 5 7 8 6 4 4 4 3 4 6 4 3 3 7 13 14 18 18 16 12 10 8 8 11 14 15 12 7 4 4 5 3 2 2 1 1 1 4 2 4 6 8 9 9 7 6 3 3 6 8
8 7 8 8 6 5 5 3 2 2 3 3 4 4 5 4 4 5 8 18 18 19 19 15 11 8 8 11 7 2 1 2 4 4 4 5 5 4 2 4 3 2 4 5 7 8 9 6 5 4 5 6 7 8
Wind_Direction
322 323 325 328 334 338 340 341 339 340 342 336 327 331 345 0 8 7 7 7 17 325 277 208 210 193 165 194 290 355 251 77 344 182 243 175 248 240 273 278 248 225 234 229 223 239 258 29 151 275 340 322 308 314
318 318 318 323 330 333 335 336 335 335 341 337 327 314 327 347 3 6 5 359 350 318 263 284 270 253 224 218 191 295 4 317 7 40 351 290 260 242 280 245 183 240 261 257 228 251 72 5 314 332 324 306 304 309
315 313 314 318 325 329 330 332 334 330 333 340 330 313 309 332 354 359 358 356 360 347 329 64 102 98 181 185 170 241 235 176 87 34 341 315 265 242 256 249 281 216 194 249 286 233 320 312 309 309 311 326 315 299
311 310 310 314 322 325 326 327 330 327 324 331 326 309 297 316 345 352 347 350 22 354 345 185 217 305 277 242 241 240 239 264 282 320 283 263 259 229 261 279 265 269 281 282 278 285 293 294 301 306 303 301 297 295
310 310 310 314 318 321 321 323 323 324 321 323 324 298 280 316 341 347 356 81 35 35 317 308 14 119 91 125 211 247 248 253 262 241 221 240 247 244 245 262 259 257 259 264 276 284 285 289 292 294 295 292 291 295
312 312 312 314 316 317 320 320 319 321 319 313 324 313 300 319 332 352 129 86 18 15 2 321 331 64 239 281 270 266 252 243 219 219 233 238 236 238 258 260 261 273 271 276 280 278 285 287 288 284 279 285 288 290
313 314 316 316 316 320 320 318 320 322 319 305 289 280 300 313 324 317 191 331 6 12 9 308 319 310 313 295 271 260 247 217 213 235 233 255 263 250 255 263 281 287 288 285 281 281 279 282 283 295 293 295 294 292
314 315 320 319 319 322 319 316 317 319 322 312 304 311 318 329 15 104 93 67 333 19 348 329 297 314 332 284 253 247 223 223 226 259 266 247 244 224 256 263 331 322 311 300 296 293 273 280 290 289 291 291 296 291
317 321 320 322 324 323 317 316 317 298 310 301 293 317 55 96 109 68 357 323 195 113 323 260 300 321 319 267 274 273 257 250 246 251 245 251 230 234 249 156 338 325 305 292 296 296 292 288 287 288 287 282 283 286
324 321 322 325 323 317 309 315 301 308 358 54 103 109 85 10 194 348 45 88 142 265 253 248 253 257 273 319 271 292 222 290 284 228 267 240 256 270 236 298 329 322 314 308 298 293 295 297 299 294 289 284 277 276
316 312 323 324 323 322 305 304 252 86 115 124 140 114 124 329 298 257 193 173 162 232 219 232 228 256 248 251 294 252 314 283 278 85 277 251 248 18 333 321 330 328 321 314 315 290 294 296 301 293 292 285 278 271
329 337 329 320 320 323 302 259 191 171 172 138 193 191 237 247 220 250 206 158 210 244 209 212 226 214 245 221 255 220 273 174 255 343 281 290 3 327 321 324 326 326 325 321 316 311 305 312 311 291 287 284 278 270
336 338 328 333 326 342 286 227 175 202 228 249 185 210 198 170 256 212 201 199 226 207 205 198 209 196 163 198 257 267 236 239 296 228 236 232 242 307 319 326 328 339 331 325 327 321 318 322 315 302 290 280 270 263
343 316 313 300 325 349 301 261 238 227 218 209 182 249 221 211 228 215 218 215 217 213 188 199 194 173 173 179 214 242 257 301 282 255 246 271 284 312 325 333 334 344 339 323 318 313 325 331 329 319 302 268 248 245
338 328 306 228 182 56 45 70 219 210 251 235 198 230 229 235 256 252 254 263 258 280 266 215 165 172 171 197 200 266 242 238 227 239 239 264 313 319 330 338 343 342 330 345 348 340 341 341 353 342 337 318 221 245
326 323 280 209 193 212 346 335 288 242 252 233 229 245 237 264 262 247 247 262 285 282 214 200 166 188 212 217 194 219 195 229 245 222 280 299 309 321 333 337 346 348 351 346 355 356 1 352 9 21 44 58 38 294
327 289 234 227 221 254 298 314 254 228 243 234 245 239 247 274 267 264 274 279 240 189 209 186 224 206 126 222 233 197 219 238 272 292 315 320 315 316 329 338 347 350 3 0 1 7 12 -0 47 67 65 54 58 51
312 292 246 241 236 273 290 238 248 243 248 245 245 253 233 244 262 272 276 273 232 205 187 214 210 189 225 223 228 225 247 279 298 305 309 319 319 321 337 345 359 1 6 9 4 17 28 28 21 49 60 53 55 49
313 292 246 234 230 247 256 225 230 261 245 250 259 267 266 267 278 279 276 273 249 213 213 199 225 211 224 219 261 305 307 298 306 309 314 317 314 318 338 351 6 13 11 14 23 25 32 41 30 28 35 46 43 45
306 289 230 216 208 242 265 255 221 258 263 265 260 268 270 268 278 283 278 240 194 189 209 217 245 259 254 315 302 305 313 308 303 310 314 336 332 336 335 347 5 6 14 25 27 32 39 42 41 42 40 43 41 41
7 151 209 202 213 231 270 244 241 245 281 266 277 284 269 263 265 262 231 205 188 219 228 224 206 286 309 283 302 319 324 327 320 308 316 339 2 8 3 5 9 15 18 19 30 30 33 36 38 38 42 46 51 52
189 203 191 186 206 235 262 244 247 287 269 263 280 261 264 273 245 206 169 190 234 245 222 202 232 215 204 22 11 23 19 21 12 16 24 30 19 36 30 12 13 18 19 26 28 29 34 38 38 38 39 47 54 60
194 203 224 199 213 238 251 244 244 244 257 265 281 252 223 223 206 217 242 235 254 246 223 167 148 125 96 77 68 67 66 61 54 49 42 35 51 56 17 28 29 29 30 30 34 29 30 39 39 41 41 41 49 60
191 202 210 217 208 257 234 233 228 257 260 253 247 273 255 123 207 220 255 244 222 181 156 148 144 130 112 96 76 64 54 51 46 43 36 33 30 10 12 11 12 19 31 32 28 32 37 41 38 37 42 47 49 50
228 227 209 250 227 248 233 233 225 234 255 236 259 253 208 194 248 242 250 247 198 182 172 160 162 157 134 109 97 25 360 354 359 15 15 23 16 21 21 28 36 27 25 29 28 27 29 37 38 44 49 53 57 58
225 211 197 224 228 224 237 263 236 248 265 257 238 249 180 218 245 249 227 223 193 186 187 189 189 189 207 165 82 355 331 342 355 3 359 359 2 345 11 28 42 33 34 61 50 44 35 31 36 45 46 47 48 46
247 235 226 234 252 282 275 260 256 253 252 237 219 193 211 250 246 241 243 202 183 183 180 187 202 206 173 252 329 325 317 319 320 322 334 352 19 35 38 35 37 39 50 53 39 25 23 22 58 47 39 31 25 23
240 250 213 211 218 233 261 284 260 241 231 209 182 222 243 238 277 320 165 160 157 164 165 174 188 199 239 278 302 319 330 341 356 4 11 13 20 10 0 46 44 44 54 53 32 26 45 60 76 47 28 19 22 24
230 225 214 242 230 238 224 226 249 247 222 188 210 248 261 266 281 265 188 177 176 180 189 203 220 217 226 279 308 321 335 341 345 350 348 359 8 6 336 278 38 63 86 40 27 40 57 47 33 29 25 23 15 23
236 211 217 231 219 224 233 218 247 290 320 289 254 274 292 290 280 241 215 186 182 181 186 191 193 194 207 228 261 289 302 311 324 333 325 333 358 22 56 105 88 84 81 39 25 20 15 10 6 1 9 17 16 13
222 193 218 234 258 255 261 267 272 280 289 279 264 253 266 280 273 201 183 178 183 186 195 196 202 219 237 259 275 286 290 299 310 319 341 346 345 345 39 69 74 161 183 311 349 1 355 3 19 20 18 21 25 14
202 209 211 234 255 284 295 257 244 228 234 237 239 233 244 242 245 215 205 191 189 196 202 208 221 243 273 290 299 299 290 285 281 279 319 304 311 306 227 336 303 205 232 299 318 329 333 345 349 355 5 341 340 345
205 218 219 249 263 257 245 228 249 255 234 243 243 240 235 226 245 216 211 210 207 206 207 210 219 246 298 328 347 24 49 225 222 237 272 277 256 245 239 221 236 282 265 290 320 336 347 343 344 340 346 344 342 352